[[{"header":{"parameterUnit":"m.s-1","parameterCategory":1,"la1":30.2992,"la2":30.254,"lo1":-89.0895,"lo2":-89.0443,"dy":0.0025,"dx":0.0025,"nx":19,"ny":19,"refTime":"2026-04-18T09:00:00:Z","depth":0,"parameterNumber":2,"parameterNumberName":"U-component_of_WINDS"},"data":[0,0,0,-3.7062,-3.7067,-3.7255,-3.7256,-3.7546,-3.7549,0,0,0,0,0,0,0,0,0,0,0,-3.7035,-3.7037,-3.7062,-3.7067,-3.7255,-3.7256,-3.7545,-3.7549,0,0,0,0,0,0,0,0,0,0,0,-3.7033,-3.7037,-3.704,-3.7068,-3.7255,-3.7256,-3.7545,-3.7385,0,0,0,0,0,0,0,0,0,0,-3.7194,-3.7196,-3.7036,-3.7041,-3.7069,-3.7255,-3.7256,-3.7377,-3.7395,-3.7481,0,-3.7564,0,-3.7561,-3.7571,-3.7572,0,0,0,-3.7046,-3.7181,-3.7206,-3.7041,-3.7071,-3.7255,-3.7165,-3.7387,-3.7408,-3.7506,-3.7567,-3.7577,-3.7566,-3.7573,-3.7575,-3.8138,-3.8141,0,0,-3.7036,-3.7084,-3.7192,-3.7221,-3.7193,-3.7159,-3.7171,-3.7398,-3.747,-3.7568,-3.7583,-3.7571,-3.7576,-3.7578,-3.8134,-3.8139,0,0,0,-3.702,-3.7078,-3.7096,-3.721,-3.724,-3.7165,-3.7178,-3.7459,-3.7461,-3.7585,-3.7574,-3.7578,-3.7582,-3.813,-3.8136,-3.8367,0,0,0,-3.7013,-3.7069,-3.7093,-3.7124,-3.7237,-3.7352,-3.7235,-3.7445,-3.7469,-3.7573,-3.7578,-3.7585,-3.8126,-3.8133,-3.8351,-3.847,0,0,0,-3.7013,-3.7068,-3.7105,-3.7127,-3.7209,-3.7347,-3.7361,-3.7449,-3.7464,-3.7573,-3.7586,-3.8124,-3.8132,-3.8338,-3.8448,-3.8638,0,0,0,-3.7027,-3.7305,-3.7109,-3.7415,-3.7208,-3.7486,-3.7359,-3.7563,-3.7684,-3.7579,-3.8127,-3.8135,-3.8334,-3.8434,-3.8624,-3.8812,-3.8893,0,0,-3.7406,-3.7353,-3.7528,-3.7359,-3.7685,-3.7453,-3.7812,-3.7876,-3.7841,-3.8041,-3.8054,-3.8356,-3.8446,-3.8635,-3.9314,-3.9379,0,0,0,-3.7665,-3.7794,-3.7869,-3.7986,-3.804,-3.8098,-3.81,-3.8124,-3.8291,-3.7953,-3.847,-3.8522,-3.8631,-3.8719,-3.8774,-3.8868,-3.8176,-3.8175,-3.8174,-3.8278,-3.8216,-3.8505,-3.8468,-3.8582,-3.8582,-3.867,-3.8702,-3.8606,-3.8729,-3.8792,-3.9211,-3.9316,-3.9357,-3.9455,-3.8878,-3.8879,-3.888,-3.8881,-3.8833,-3.9009,-3.8873,-3.9106,-3.904,-3.9235,-3.9244,-3.917,-3.9344,-3.9159,-3.9252,-3.9063,-3.943,-3.9513,-3.8897,-3.8895,-3.8892,-3.8891,-3.889,-3.9236,-3.931,-3.9331,-3.9494,-3.9626,-3.9575,-3.9749,-3.968,-3.9616,-3.9707,-3.977,-3.9766,-3.9761,-3.974,-3.9741,-3.9743,-3.9744,-3.9745,-3.9746,-3.9649,-3.9665,-3.982,-3.9899,-3.9966,-4.0044,-4.0043,-4.0107,-4.0161,-4.0098,-4.0098,-3.9996,-3.9473,-3.9349,-3.9769,-3.9765,-3.9762,-3.976,-3.9758,-4.0252,-4.0104,-4.0344,-4.0411,-4.0499,-4.0637,-4.0543,-4.0679,-4.0721,-4.081,-4.0684,-4.0306,-4.0248,-4.0204,-4.0102,-4.0691,-4.0691,-4.0691,-4.0691,-4.0599,-4.0559,-4.0791,-4.0903,-4.1003,-4.0942,-4.1219,-4.122,-4.1198,-4.1221,-4.1123,-4.0977,-4.0934,-4.0902,-4.0843,-4.0747,-4.1487,-4.1488,-4.1489,-4.0971,-4.0938,-4.1188,-4.1162,-4.1225,-4.1281,-4.154,-4.1676,-4.1618,-4.152,-4.1239,-4.1206,-4.0969,-4.0894,-4.08,-4.0709,-4.0531,0,0]},{"header":{"parameterUnit":"m.s-1","parameterCategory":1,"la1":30.2992,"la2":30.254,"lo1":-89.0895,"lo2":-89.0443,"dy":0.0025,"dx":0.0025,"nx":19,"ny":19,"refTime":"2026-04-18T09:00:00:Z","depth":0,"parameterNumber":3,"parameterNumberName":"V-component_of_WINDS"},"data":[0,0,0,-5.5252,-5.5256,-5.5425,-5.5425,-5.5654,-5.5656,0,0,0,0,0,0,0,0,0,0,0,-5.5215,-5.5217,-5.5252,-5.5257,-5.5424,-5.5425,-5.5654,-5.5656,0,0,0,0,0,0,0,0,0,0,0,-5.5214,-5.5217,-5.5219,-5.5257,-5.5424,-5.5425,-5.5653,-5.552,0,0,0,0,0,0,0,0,0,0,-5.5354,-5.5334,-5.5216,-5.5219,-5.5258,-5.5424,-5.5425,-5.5514,-5.5529,-5.5585,0,-5.5643,0,-5.5654,-5.5673,-5.5674,0,0,0,-5.5246,-5.5321,-5.5355,-5.522,-5.526,-5.5424,-5.5346,-5.5522,-5.5539,-5.5605,-5.5646,-5.5654,-5.5657,-5.5675,-5.5676,-5.6045,-5.6047,0,0,-5.5237,-5.5251,-5.5344,-5.5367,-5.5347,-5.534,-5.5351,-5.5532,-5.5575,-5.5646,-5.5659,-5.5661,-5.5676,-5.5678,-5.6043,-5.6045,0,0,0,-5.5217,-5.5245,-5.5275,-5.5358,-5.5388,-5.5346,-5.5358,-5.5567,-5.5576,-5.5661,-5.5664,-5.5678,-5.5681,-5.604,-5.6044,-5.6169,0,0,0,-5.5211,-5.5234,-5.5271,-5.5282,-5.5385,-5.5481,-5.539,-5.5563,-5.5583,-5.5663,-5.5678,-5.5683,-5.6038,-5.6042,-5.616,-5.6225,0,0,0,-5.52,-5.5232,-5.5261,-5.5282,-5.5355,-5.5477,-5.5496,-5.5567,-5.5586,-5.5674,-5.5684,-5.6036,-5.6041,-5.6152,-5.6212,-5.6326,0,0,0,-5.5191,-5.5369,-5.5264,-5.5463,-5.5354,-5.5554,-5.5494,-5.5642,-5.5733,-5.5679,-5.6038,-5.6043,-5.615,-5.6204,-5.6318,-5.6426,-5.6472,0,0,-5.5424,-5.5398,-5.5514,-5.5424,-5.5647,-5.5527,-5.5767,-5.5835,-5.5828,-5.5972,-5.5981,-5.6163,-5.6211,-5.6325,-5.6725,-5.6762,0,0,0,-5.5592,-5.5676,-5.5731,-5.582,-5.5878,-5.5931,-5.5961,-5.5985,-5.6108,-5.5906,-5.6234,-5.6263,-5.6328,-5.6379,-5.641,-5.6465,-5.6067,-5.6067,-5.6066,-5.5943,-5.5926,-5.6116,-5.612,-5.6206,-5.6234,-5.6301,-5.6339,-5.6295,-5.6373,-5.6416,-5.6662,-5.6721,-5.6745,-5.6802,-5.6471,-5.6471,-5.6472,-5.6472,-5.6282,-5.6397,-5.6336,-5.6499,-5.6479,-5.6614,-5.6646,-5.6611,-5.6731,-5.6628,-5.6685,-5.6574,-5.6786,-5.6835,-5.6481,-5.648,-5.6479,-5.6478,-5.6477,-5.651,-5.6562,-5.659,-5.6716,-5.6813,-5.6808,-5.6927,-5.6904,-5.6882,-5.6938,-5.698,-5.6978,-5.6973,-5.696,-5.6961,-5.6962,-5.6962,-5.6963,-5.6964,-5.6735,-5.6763,-5.6868,-5.6944,-5.6996,-5.7062,-5.7091,-5.7141,-5.719,-5.7163,-5.7163,-5.7111,-5.681,-5.6735,-5.6977,-5.6974,-5.6973,-5.6971,-5.6971,-5.7086,-5.7003,-5.7166,-5.7219,-5.7304,-5.7401,-5.7369,-5.7472,-5.751,-5.7569,-5.7504,-5.7286,-5.7256,-5.7231,-5.7169,-5.7508,-5.7508,-5.7508,-5.7508,-5.7279,-5.7262,-5.7422,-5.7508,-5.759,-5.7577,-5.7757,-5.778,-5.7789,-5.781,-5.7757,-5.7672,-5.7648,-5.7633,-5.7599,-5.7541,-5.7967,-5.7967,-5.7968,-5.7493,-5.7483,-5.7644,-5.7655,-5.7718,-5.7772,-5.7941,-5.8038,-5.8031,-5.7986,-5.7826,-5.7807,-5.7669,-5.7626,-5.7578,-5.7526,-5.7418,0,0]}]]